Date,TemperatureHighF,TemperatureAvgF,TemperatureLowF,DewpointHighF,DewpointAvgF,DewpointLowF,HumidityHigh,HumidityAvg,HumidityLow,PressureMaxIn,PressureMinIn,WindSpeedMaxMPH,WindSpeedAvgMPH,GustSpeedMaxMPH,PrecipitationSumIn
2013-1-1,56.2,48.1,37.6,34.5,22.0,10.4,74,41,18,28.94,28.82,25,7,25,0.00
2013-1-2,62.3,55.5,50.0,17.6,14.7,12.4,23,20,17,28.85,28.75,30,12,30,0.03
2013-1-3,63.7,57.2,52.2,18.2,13.5,7.2,23,18,13,28.90,28.78,23,10,23,0.00
2013-1-4,66.4,56.3,42.5,29.3,18.1,7.2,53,26,12,28.98,28.88,14,3,14,0.00
2013-1-5,65.0,50.4,38.3,38.8,26.4,12.5,63,42,17,28.99,28.89,10,1,10,0.00
2013-1-6,54.4,48.9,44.6,44.4,40.2,33.8,83,72,55,28.91,28.74,19,2,19,0.04
2013-1-7,64.4,54.0,46.8,40.1,32.2,20.3,61,45,22,28.83,28.72,18,5,18,0.00
2013-1-8,74.3,64.4,46.1,36.2,31.5,23.7,47,30,22,28.84,28.76,17,4,17,0.00
2013-1-9,70.0,61.0,51.5,51.2,40.1,31.9,82,50,30,28.84,28.72,11,2,13,0.00
2013-1-10,54.0,49.0,40.7,45.2,31.9,21.2,79,54,28,28.82,28.64,12,3,12,0.00
2013-1-11,54.0,44.0,34.2,27.9,23.8,19.0,62,46,30,28.89,28.76,15,3,15,0.00
2013-1-12,54.5,43.4,34.4,24.8,21.9,13.2,64,45,20,28.86,28.78,15,3,15,0.00
2013-1-13,54.7,44.9,38.3,25.6,17.8,6.9,57,35,23,28.87,28.75,19,5,19,0.00
2013-1-14,49.3,42.1,34.7,7.7,2.2,-2.9,28,20,12,29.05,28.85,23,7,23,0.00
2013-1-15,58.7,50.6,41.9,19.1,12.2,-0.4,26,21,17,29.14,29.03,20,7,20,0.00
2013-1-16,67.7,59.4,52.6,25.7,21.7,17.1,30,24,18,29.06,28.86,22,9,22,0.00
2013-1-17,71.1,64.7,59.4,18.6,13.4,9.1,19,14,9,28.91,28.80,33,14,33,0.30
2013-1-18,71.1,64.5,60.1,15.0,12.2,9.7,16,13,10,28.90,28.80,24,12,24,0.02
2013-1-19,73.3,65.4,59.6,14.6,11.4,7.8,16,12,8,28.93,28.83,22,10,22,0.02
2013-1-20,74.0,66.4,61.4,14.0,9.8,6.7,12,11,7,28.88,28.77,22,11,22,0.00
2013-1-21,75.6,67.9,62.1,15.2,10.2,6.7,12,9,5,28.85,28.76,26,11,26,0.00
2013-1-22,78.3,66.2,56.5,23.8,13.2,4.9,28,13,6,28.84,28.76,14,4,16,0.00
2013-1-23,74.5,64.4,55.3,45.9,29.3,13.2,69,28,15,28.86,28.75,9,2,9,0.00
2013-1-24,61.2,57.2,52.7,54.3,51.8,44.8,91,82,70,28.92,28.81,12,3,12,0.00
2013-1-25,60.7,57.8,55.3,52.1,49.9,45.3,86,75,60,28.88,28.70,20,8,20,0.46
2013-1-26,68.2,60.1,54.9,56.2,52.6,50.2,89,77,59,28.72,28.62,13,3,13,0.11
2013-1-27,60.1,52.5,44.8,51.4,42.6,25.8,89,70,40,28.75,28.66,13,2,13,0.08
2013-1-28,57.4,49.7,44.3,35.5,29.6,25.0,55,46,36,28.89,28.74,14,4,14,0.00
2013-1-29,61.4,49.7,39.2,40.4,34.8,29.7,74,58,37,28.92,28.84,10,2,10,0.00
2013-1-30,69.7,55.0,43.4,42.9,37.6,33.8,77,54,32,29.03,28.91,12,2,12,0.00
2013-1-31,75.4,60.4,43.9,44.6,37.0,32.8,74,45,22,28.97,28.83,15,4,15,0.00
2013-2-1,76.5,61.1,48.8,46.2,39.3,33.6,63,46,22,28.90,28.84,14,2,14,0.00
2013-2-2,74.0,66.3,57.6,48.4,37.6,32.4,62,36,25,28.93,28.85,16,5,16,0.03
2013-2-3,74.2,63.5,51.5,49.0,43.0,34.8,68,48,32,28.88,28.74,12,4,12,0.00
2013-2-4,72.5,57.0,45.2,51.7,42.6,34.9,78,60,37,28.81,28.71,9,2,9,0.00
2013-2-5,60.5,52.0,44.5,49.5,45.3,38.3,87,78,66,28.81,28.71,8,1,8,0.00
2013-2-6,65.9,53.1,44.6,48.3,44.3,38.3,90,73,45,28.82,28.71,10,2,10,0.00
2013-2-7,61.6,50.8,43.2,47.8,42.6,37.4,85,74,58,28.84,28.68,11,2,11,0.00
2013-2-8,54.0,45.8,38.7,43.4,37.2,33.7,84,73,51,28.69,28.57,16,3,16,0.19
2013-2-9,57.4,44.8,34.7,37.3,33.5,30.1,85,67,37,28.80,28.64,10,2,10,0.00
2013-2-10,57.4,46.9,37.4,41.5,37.4,33.0,84,71,49,28.80,28.71,9,2,9,0.00
2013-2-11,60.3,47.8,37.6,34.4,27.4,14.8,83,52,19,28.94,28.76,20,3,20,0.00
2013-2-12,63.9,48.8,36.4,33.7,25.8,10.4,70,45,15,29.03,28.94,12,2,12,0.00
2013-2-13,71.8,52.3,38.5,42.2,32.3,22.0,69,51,17,28.97,28.85,12,2,12,0.00
2013-2-14,75.4,59.4,41.8,38.8,29.8,22.2,67,38,16,28.91,28.80,20,4,20,0.00
2013-2-15,76.0,68.1,60.1,28.2,21.7,14.8,29,18,13,28.93,28.86,26,10,26,0.00
2013-2-16,79.9,67.0,50.0,26.6,19.9,15.5,38,18,7,28.90,28.70,16,5,16,0.00
2013-2-17,70.9,56.1,46.1,45.9,32.9,22.9,78,44,19,28.74,28.64,12,2,12,0.00
2013-2-18,65.2,53.6,44.1,47.0,43.8,38.6,85,70,48,28.77,28.65,12,2,12,0.00
2013-2-19,53.8,50.3,44.3,46.0,42.1,40.0,88,74,61,28.70,28.42,13,3,13,0.48
2013-2-20,59.2,46.6,34.0,39.9,31.8,24.8,87,59,36,28.70,28.42,12,2,12,0.00
2013-2-21,60.8,48.3,36.0,40.8,32.1,19.8,74,56,21,28.81,28.68,12,2,12,0.00
2013-2-22,66.4,51.2,38.7,35.1,30.2,23.5,69,48,23,28.89,28.80,11,2,11,0.00
2013-2-23,66.4,53.0,40.3,47.2,33.6,25.1,67,49,32,28.87,28.63,23,4,23,0.00
2013-2-24,62.8,54.5,47.9,29.6,12.8,1.5,45,21,11,28.90,28.75,23,6,23,0.00
2013-2-25,68.2,54.4,41.6,32.8,21.2,1.9,55,30,12,28.93,28.79,12,2,12,0.00
2013-2-26,71.5,59.1,42.1,28.9,21.8,12.2,58,27,12,28.85,28.71,17,5,17,0.00
2013-2-27,70.9,61.9,54.0,15.6,11.8,8.6,21,15,11,29.02,28.84,22,8,22,0.00
2013-2-28,77.9,63.8,48.4,32.6,18.2,9.6,36,19,8,29.04,28.96,17,4,17,0.00
2013-3-1,82.4,70.0,58.1,30.3,21.3,12.2,34,17,10,29.03,28.89,19,7,19,0.00
2013-3-2,83.2,68.2,56.3,35.2,29.1,22.1,37,25,13,28.95,28.83,11,2,11,0.00
2013-3-3,73.4,61.1,49.9,47.7,39.6,29.8,79,47,28,28.85,28.70,13,2,13,0.00
2013-3-4,70.4,56.5,45.0,48.8,44.8,38.5,84,67,44,28.82,28.72,12,2,12,0.00
2013-3-5,66.8,54.5,47.7,50.4,46.4,41.1,86,75,53,28.83,28.74,13,3,13,0.00
2013-3-6,58.3,53.1,47.2,49.1,45.5,41.3,86,76,61,28.85,28.71,9,2,9,0.00
2013-3-7,61.0,54.3,48.6,47.9,43.5,33.3,86,69,36,28.72,28.55,11,2,11,0.00
2013-3-8,56.2,50.4,44.8,45.7,43.2,40.6,87,77,62,28.73,28.48,12,3,12,0.00
2013-3-9,64.6,55.1,43.6,44.2,39.8,30.8,83,59,39,28.93,28.73,13,3,13,0.00
2013-3-10,75.6,61.8,50.6,39.0,28.3,14.7,59,32,10,28.99,28.88,16,4,16,0.00
2013-3-11,79.9,60.0,43.9,43.6,35.1,25.4,62,43,15,28.90,28.78,12,2,12,0.00
2013-3-12,85.9,63.8,46.4,48.4,39.2,23.8,69,45,11,28.83,28.75,10,2,10,0.00
2013-3-13,91.8,68.5,51.8,46.4,38.3,28.5,58,38,12,28.85,28.78,14,2,14,0.00
2013-3-14,89.3,68.8,52.4,50.3,41.1,34.6,60,39,16,28.82,28.76,16,2,16,0.00
2013-3-15,86.0,67.3,55.6,54.3,45.3,38.6,64,47,21,28.76,28.67,13,2,13,0.00
2013-3-16,75.6,61.5,49.5,53.8,47.9,41.2,77,62,46,28.70,28.60,9,2,9,0.00
2013-3-17,78.5,62.9,49.1,51.0,45.7,37.3,84,56,30,28.71,28.65,14,3,14,0.00
2013-3-18,68.8,55.9,45.2,50.9,46.1,39.6,83,70,52,28.80,28.69,13,2,13,0.00
2013-3-19,74.7,59.4,47.9,51.8,47.9,42.3,84,68,39,28.83,28.74,12,2,12,0.00
2013-3-20,73.1,62.1,53.3,52.6,48.8,45.7,79,63,42,28.81,28.67,10,2,10,0.00
2013-3-21,77.4,64.8,52.6,50.5,45.1,27.5,77,51,27,28.68,28.54,13,3,13,0.00
2013-3-22,79.7,65.2,51.3,45.8,31.6,12.3,46,30,15,28.63,28.51,14,4,14,0.00
2013-3-23,79.9,65.2,51.8,48.1,32.5,11.6,64,34,11,28.73,28.62,16,4,16,0.00
2013-3-24,80.8,62.0,46.6,50.1,37.6,25.1,64,42,21,28.74,28.63,12,2,12,0.00
2013-3-25,79.0,63.2,50.6,52.6,41.7,32.5,64,47,24,28.69,28.63,10,2,10,0.00
2013-3-26,75.4,61.0,49.0,51.4,44.4,37.6,70,56,39,28.68,28.63,10,2,10,0.00
2013-3-27,72.7,58.5,48.1,52.7,46.9,41.9,89,66,47,28.77,28.64,14,3,14,0.00
2013-3-28,76.9,60.1,48.8,54.4,48.9,43.5,87,68,42,28.79,28.72,12,2,12,0.00
2013-3-29,79.6,63.9,50.2,54.6,49.1,42.4,77,60,38,28.83,28.76,11,2,11,0.00
2013-3-30,79.9,63.1,53.1,53.4,48.2,37.5,86,61,33,28.84,28.78,11,2,11,0.00
2013-3-31,66.1,59.5,53.3,58.0,50.8,39.1,83,73,57,28.84,28.77,11,2,11,0.00
2013-4-1,68.8,59.0,53.1,51.9,49.8,47.8,87,72,51,28.88,28.79,14,3,14,0.00
2013-4-2,76.0,61.3,47.5,52.4,48.7,42.3,85,65,42,28.80,28.72,12,2,12,0.00
2013-4-3,81.4,64.4,50.0,55.4,49.0,42.3,78,60,29,28.80,28.72,15,2,15,0.00
2013-4-4,75.4,61.1,52.6,55.6,51.9,47.3,88,73,48,28.84,28.74,13,3,13,0.00
2013-4-5,75.1,62.8,53.3,55.3,51.8,47.3,85,69,44,28.80,28.71,15,3,15,0.00
2013-4-6,66.1,54.6,50.8,53.9,47.9,44.8,84,78,64,28.80,28.72,7,1,7,0.00
2013-4-7,81.0,72.3,56.9,52.7,47.6,41.3,66,43,31,28.69,28.52,12,3,12,0.00
2013-4-8,71.8,59.8,51.8,50.2,39.7,30.0,82,51,25,28.57,28.40,12,3,12,0.00
2013-4-9,75.8,59.8,45.4,37.4,30.8,14.5,63,37,12,28.75,28.57,16,4,16,0.00
2013-4-10,84.6,66.8,51.3,36.7,27.0,15.1,40,25,8,28.83,28.72,15,3,15,0.00
2013-4-11,79.9,64.9,52.2,48.9,39.4,30.6,65,41,21,28.72,28.51,14,3,14,0.00
2013-4-12,78.8,62.6,50.0,53.8,48.7,42.9,81,62,42,28.59,28.52,11,2,11,0.00
2013-4-13,73.4,59.9,51.5,54.6,50.4,44.2,85,72,51,28.64,28.56,13,3,13,0.00
2013-4-14,66.2,58.7,54.7,52.0,49.3,47.4,81,71,59,28.60,28.54,10,3,10,0.00
2013-4-15,65.9,58.2,53.3,50.2,47.5,43.0,76,68,53,28.61,28.55,12,3,12,0.00
2013-4-16,68.0,57.1,47.3,43.2,35.0,21.6,76,47,24,28.72,28.57,14,4,14,0.00
2013-4-17,72.4,60.2,47.0,34.7,23.3,11.3,41,26,7,28.86,28.71,17,4,17,0.00
2013-4-18,78.8,64.2,52.9,26.6,17.9,11.9,36,18,7,28.96,28.85,20,6,20,0.00
2013-4-19,88.4,68.6,51.5,39.7,25.8,14.6,42,22,7,28.90,28.72,14,3,14,0.00
2013-4-20,93.1,73.1,55.3,47.9,36.3,26.4,42,29,10,28.73,28.64,16,4,16,0.00
2013-4-21,89.1,74.7,56.7,46.8,41.9,35.5,51,33,19,28.73,28.67,12,3,12,0.00
2013-4-22,79.9,62.5,50.2,54.7,48.5,38.6,84,62,37,28.73,28.62,9,2,9,0.00
2013-4-23,82.8,65.0,54.4,53.6,50.4,46.6,80,62,34,28.68,28.60,11,2,11,0.00
2013-4-24,64.1,59.0,55.8,55.8,51.7,47.1,91,77,67,28.71,28.62,9,2,9,0.00
2013-4-25,76.0,63.0,52.9,57.7,45.6,-19.6,99,59,6,28.84,28.68,14,3,14,0.00
2013-4-26,81.4,65.2,50.2,63.8,39.3,-18.5,99,51,1,28.87,28.83,13,2,13,0.00
2013-4-27,87.8,71.8,57.8,76.4,30.9,-22.3,99,33,1,28.87,28.73,11,2,11,0.00
2013-4-28,100.8,79.5,62.8,69.2,11.6,-25.7,80,2,1,28.73,28.59,9,2,9,0.00
2013-4-29,139.9,106.8,78.3,95.6,35.5,-16.0,99,8,1,28.62,28.52,11,4,11,0.00
2013-4-30,78.1,68.9,61.4,56.6,54.1,52.1,78,60,46,28.62,28.54,12,4,12,0.00
2013-5-1,83.5,68.9,59.0,56.8,53.7,49.1,77,60,39,28.83,28.62,11,3,11,0.00
2013-5-2,88.0,75.8,52.2,62.8,25.4,11.7,83,19,2,28.90,28.76,30,9,30,0.00
2013-5-3,98.3,80.8,65.9,36.2,23.8,12.8,26,10,2,28.78,28.53,14,5,14,0.00
2013-5-4,85.3,69.7,58.1,54.8,42.3,26.1,69,39,17,28.57,28.46,12,4,12,0.00
2013-5-5,68.9,61.7,58.3,50.6,49.2,47.0,73,64,49,28.66,28.55,11,3,11,0.00
2013-5-6,71.3,61.7,56.3,55.0,51.2,44.8,89,70,41,28.74,28.60,10,2,10,0.00
2013-5-7,72.0,63.2,57.4,52.6,50.1,45.9,82,64,45,28.79,28.71,13,2,13,0.00
2013-5-8,75.1,63.8,55.1,52.6,49.4,44.2,82,61,40,28.82,28.78,15,3,15,0.00
2013-5-9,78.3,64.2,51.5,55.3,50.1,44.5,79,62,41,28.82,28.75,12,2,12,0.00
2013-5-10,85.9,69.6,54.7,58.7,54.2,48.7,83,60,37,28.83,28.75,12,2,12,0.00
2013-5-11,93.2,74.7,57.6,61.2,55.3,50.2,79,54,33,28.80,28.74,12,2,12,0.00
2013-5-12,99.4,80.6,62.1,58.6,53.2,47.9,67,42,22,28.79,28.69,13,3,13,0.00
2013-5-13,99.9,81.7,65.9,55.9,50.6,45.6,58,36,20,28.73,28.67,13,3,13,0.00
2013-5-14,86.4,70.9,59.4,57.2,50.3,40.7,75,50,30,28.72,28.64,16,3,16,0.00
2013-5-15,79.9,67.2,55.1,57.1,51.5,44.0,69,58,45,28.76,28.67,12,2,12,0.00
2013-5-16,77.6,64.7,55.6,57.1,52.9,48.2,78,66,47,28.71,28.63,14,2,14,0.00
2013-5-17,77.8,66.4,58.3,56.3,52.8,48.1,79,63,45,28.72,28.63,14,3,14,0.00
2013-5-18,81.2,67.0,53.8,56.2,50.9,46.2,81,58,41,28.76,28.70,11,3,11,0.00
2013-5-19,84.1,69.9,52.6,55.5,49.6,41.9,68,50,31,28.72,28.61,12,3,12,0.00
2013-5-20,95.8,74.1,56.9,60.4,48.9,28.3,78,48,10,28.67,28.63,20,4,20,0.00
2013-5-21,86.8,71.6,59.0,62.2,53.7,43.8,68,54,38,28.68,28.57,11,2,11,0.00
2013-5-22,80.1,67.9,59.4,57.3,52.5,46.2,80,59,44,28.58,28.51,15,3,15,0.00
2013-5-23,75.6,65.1,55.3,53.7,48.2,42.5,70,55,43,28.67,28.56,14,3,14,0.00
2013-5-24,78.3,63.8,50.9,55.5,48.6,42.0,76,59,40,28.71,28.63,14,3,14,0.00
2013-5-25,77.4,63.6,52.4,55.4,50.0,45.5,83,63,45,28.74,28.68,13,3,13,0.00
2013-5-26,78.1,64.9,52.0,56.4,50.2,44.1,81,60,43,28.76,28.70,13,3,13,0.00
2013-5-27,81.4,68.2,54.2,55.7,51.8,47.0,79,58,38,28.73,28.58,13,3,13,0.00
2013-5-28,85.3,71.0,57.4,57.5,53.9,49.9,79,57,35,28.62,28.49,14,3,14,0.00
2013-5-29,89.3,73.6,57.6,57.3,51.9,42.8,69,49,26,28.55,28.46,14,3,14,0.00
2013-5-30,87.5,72.4,58.0,58.6,54.4,49.7,77,56,33,28.61,28.50,11,2,11,0.00
2013-5-31,85.0,71.9,58.0,61.8,56.7,50.9,79,60,45,28.65,28.56,10,2,10,0.00
2013-6-1,93.8,75.5,59.0,64.9,58.3,51.8,79,58,36,28.59,28.49,9,2,9,0.00
2013-6-2,87.1,71.1,60.7,64.1,59.0,54.1,80,67,43,28.55,28.51,13,3,13,0.00
2013-6-3,82.8,69.0,62.3,60.0,56.4,53.6,76,65,41,28.63,28.53,13,3,13,0.00
2013-6-4,82.4,69.3,58.9,59.8,56.0,49.7,77,64,42,28.70,28.61,12,3,12,0.00
2013-6-5,80.5,66.1,54.5,59.2,53.9,47.8,81,66,45,28.73,28.65,12,3,12,0.00
2013-6-6,81.0,67.6,54.4,60.5,55.0,48.0,82,65,48,28.67,28.60,10,3,10,0.00
2013-6-7,84.4,69.4,57.8,61.5,56.8,51.3,86,66,45,28.64,28.52,10,2,10,0.00
2013-6-8,86.0,73.7,60.8,63.6,58.6,53.2,82,61,45,28.64,28.52,11,3,11,0.00
2013-6-9,87.5,72.2,61.2,63.0,57.8,52.9,81,62,39,28.65,28.60,12,3,12,0.00
2013-6-10,81.9,69.5,60.8,57.4,54.9,51.5,80,61,40,28.69,28.62,13,3,13,0.00
2013-6-11,89.8,72.3,58.5,60.9,55.2,47.7,80,58,32,28.68,28.63,11,2,11,0.00
2013-6-12,82.8,69.4,58.5,62.1,57.6,51.4,87,68,49,28.74,28.65,12,3,12,0.00
2013-6-13,83.9,69.8,59.8,61.1,57.0,52.2,85,66,44,28.74,28.63,11,2,11,0.00
2013-6-14,83.7,69.6,55.4,60.4,55.2,46.3,76,62,44,28.64,28.58,11,2,11,0.00
2013-6-15,82.6,69.5,60.1,59.7,56.1,52.7,80,64,42,28.71,28.61,12,3,12,0.00
2013-6-16,84.6,69.0,56.3,58.6,54.7,48.6,83,62,38,28.76,28.68,11,2,11,0.00
2013-6-17,89.3,72.2,57.4,59.8,54.3,47.7,74,55,32,28.70,28.62,9,2,9,0.00
2013-6-18,84.1,71.3,57.6,58.7,54.2,47.9,73,56,38,28.65,28.57,12,3,12,0.00
2013-6-19,87.3,73.0,56.9,55.0,50.1,39.1,79,48,24,28.60,28.53,14,3,14,0.00
2013-6-20,87.5,72.6,55.4,53.8,49.6,41.9,72,48,24,28.59,28.54,12,3,12,0.00
2013-6-21,87.5,72.9,57.6,55.8,49.1,40.6,57,44,31,28.63,28.57,13,2,13,0.00
2013-6-22,85.7,72.0,58.9,59.7,53.3,45.5,73,53,38,28.64,28.56,14,3,14,0.00
2013-6-23,78.3,68.0,58.0,59.8,55.0,47.8,78,64,50,28.61,28.54,13,2,13,0.00
2013-6-24,73.3,66.7,60.5,59.9,56.3,52.0,80,70,60,28.68,28.56,11,2,11,0.00
2013-6-25,82.6,71.0,58.1,62.1,58.1,52.4,87,65,49,28.72,28.65,12,2,12,0.00
2013-6-26,92.3,77.9,64.8,65.1,60.3,56.4,77,57,39,28.71,28.66,12,2,12,0.00
2013-6-27,99.0,82.2,68.4,67.2,61.7,57.1,70,52,33,28.76,28.70,12,3,12,0.00
2013-6-28,98.5,81.0,68.8,65.9,59.2,54.0,66,49,32,28.74,28.66,12,2,12,0.00
2013-8-9,77.9,75.1,70.5,57.9,56.8,55.7,59,53,49,0.00,0.00,6,3,10,0.00
2013-8-10,82.9,82.7,82.6,58.0,57.4,57.2,43,42,42,0.00,0.00,10,6,12,0.00
2013-8-12,64.2,63.8,63.5,52.2,51.7,51.3,65,64,64,0.00,0.00,1,0,3,0.00
2013-8-13,90.7,82.3,69.3,63.3,59.8,53.6,65,47,38,28.69,0.00,10,4,10,0.00
2013-8-14,95.8,76.2,59.9,62.3,55.9,48.7,74,51,28,28.66,28.58,10,2,10,0.00
2013-8-15,94.9,77.6,61.6,66.0,57.8,48.6,74,52,37,28.68,28.62,12,2,12,0.00
2013-8-16,95.0,79.3,65.2,61.1,55.0,42.1,70,45,28,28.70,28.66,12,3,12,0.00
2013-8-17,94.5,78.5,63.7,59.0,50.7,38.0,53,39,29,28.69,28.58,11,3,11,0.00
2013-8-18,92.5,76.4,62.3,62.5,54.6,44.5,63,48,32,28.65,28.57,11,2,11,0.00
2013-8-19,90.4,75.0,64.3,65.3,59.6,55.3,76,60,43,28.68,28.61,11,3,11,0.00
2013-8-20,92.5,73.3,59.8,63.5,57.9,52.9,81,61,35,28.69,28.60,13,3,13,0.00
2013-8-21,91.4,75.1,61.2,60.7,56.0,51.2,74,54,33,28.67,28.60,12,2,12,0.00
2013-8-22,95.8,71.2,61.2,55.7,52.3,47.3,69,54,22,28.67,28.58,10,1,10,0.00
2013-8-23,94.7,76.8,61.9,58.4,50.0,39.5,54,40,29,28.62,28.51,13,3,13,0.00
2013-8-24,93.8,75.4,59.8,58.4,47.7,38.1,58,39,25,28.61,28.53,13,3,13,0.00
2013-8-25,94.7,76.5,58.9,59.2,46.7,33.6,54,36,24,28.67,28.60,12,3,12,0.00
2013-8-26,96.7,79.6,63.9,63.7,49.4,32.3,54,36,26,28.68,28.60,14,3,14,0.00
2013-8-27,96.7,81.2,73.3,65.0,57.8,46.7,62,46,25,28.62,28.54,12,2,12,0.00
2013-8-28,96.5,81.6,69.8,63.2,56.0,46.4,66,44,23,28.66,28.54,13,3,13,0.00
2013-8-29,101.7,84.5,69.3,59.3,54.5,49.7,60,38,22,28.70,28.63,14,3,14,0.00
2013-8-30,101.9,87.3,76.0,69.2,61.7,51.5,52,43,34,28.74,28.67,9,3,12,0.00
2013-8-31,95.2,84.9,77.6,70.6,67.0,62.3,69,56,43,28.73,28.65,14,4,14,0.00
2013-9-1,93.2,82.5,74.2,70.6,66.8,63.4,70,60,48,28.70,28.62,12,3,12,0.00
2013-9-2,94.0,81.1,69.8,68.7,65.1,61.1,76,60,42,28.68,28.58,12,3,12,0.00
2013-9-3,97.9,82.9,70.6,64.8,61.0,56.1,66,49,31,28.66,28.60,13,3,13,0.00
2013-9-4,98.8,83.1,70.2,63.1,58.6,52.9,66,45,27,28.67,28.61,11,3,11,0.00
2013-9-5,98.6,82.9,70.2,59.6,54.3,47.2,57,39,20,28.65,28.60,14,2,14,0.00
2013-9-6,102.2,84.7,70.2,58.5,52.7,46.2,58,35,22,28.65,28.57,14,3,14,0.00
2013-9-7,100.3,82.1,71.8,59.7,51.0,44.9,46,35,22,28.64,28.58,12,3,12,0.00
2013-9-8,94.0,81.2,69.1,59.2,52.8,41.9,51,39,25,28.61,28.52,11,2,11,0.00
2013-9-9,88.0,75.1,65.7,60.5,55.6,50.4,69,52,33,28.56,28.50,11,2,11,0.00
2013-9-10,85.3,70.5,59.2,60.6,56.6,49.5,83,63,38,28.68,28.55,10,2,11,0.00
2013-9-11,83.5,69.4,58.7,61.1,56.6,50.2,87,65,46,28.74,28.67,12,2,12,0.00
2013-9-12,90.4,73.5,59.8,59.2,54.6,48.3,77,54,31,28.68,28.58,12,2,12,0.00
2013-9-13,92.3,76.5,62.3,58.5,52.2,45.4,63,44,29,28.58,28.43,11,2,11,0.00
2013-9-14,94.7,79.1,65.5,60.7,53.1,46.5,58,42,30,28.48,28.42,10,2,10,0.00
2013-9-15,94.7,78.8,65.5,62.7,54.9,47.3,62,45,31,28.53,28.44,11,2,11,0.00
2013-9-16,96.7,77.7,61.9,57.5,49.9,41.9,56,39,21,28.58,28.51,11,2,11,0.00
2013-9-17,86.0,72.0,59.4,58.9,50.8,41.6,63,48,35,28.56,28.48,13,3,13,0.00
2013-9-18,82.8,68.9,56.5,58.6,53.6,45.4,80,59,42,28.55,28.50,11,2,11,0.00
2013-9-19,85.9,69.0,56.2,62.0,55.3,47.7,78,63,44,28.57,28.50,12,2,12,0.00
2013-9-20,78.1,67.1,60.3,62.5,58.7,53.6,88,75,57,28.63,28.55,12,3,12,0.00
2013-9-21,77.8,67.9,60.8,60.0,58.1,53.3,82,72,51,28.65,28.54,17,3,17,0.00
2013-9-22,80.8,69.0,56.7,53.3,46.8,35.6,80,49,28,28.58,28.52,17,4,17,0.00
2013-9-23,95.6,78.9,68.2,50.8,41.2,34.7,38,28,15,28.64,28.55,16,5,16,0.00
2013-9-24,89.1,73.7,61.7,48.0,41.4,36.3,47,33,18,28.68,28.58,14,3,14,0.00
2013-9-25,79.2,66.9,57.2,59.1,50.2,41.3,78,56,43,28.58,28.44,12,3,12,0.00
2013-9-26,76.5,65.2,55.3,53.8,44.5,36.5,73,49,26,28.63,28.45,17,3,17,0.00
2013-9-27,83.5,68.7,52.7,37.6,31.8,22.7,56,28,11,28.74,28.62,18,6,22,0.00
2013-9-28,90.4,72.8,58.7,37.4,30.3,25.4,41,22,11,28.79,28.72,14,3,14,0.00
2013-9-29,88.9,70.6,56.7,41.0,34.6,28.0,44,29,13,28.80,28.72,10,3,12,0.00
2013-9-30,87.5,67.7,55.6,50.1,41.5,33.3,57,40,21,28.72,28.59,12,2,12,0.00
2013-10-1,83.9,70.2,58.7,57.9,49.2,42.0,64,48,29,28.66,28.61,12,3,12,0.00
2013-10-2,78.8,65.8,58.3,58.9,54.1,48.7,77,67,45,28.71,28.61,11,2,11,0.00
2013-10-3,77.2,65.3,56.5,58.0,54.6,50.0,86,69,47,28.66,28.55,12,2,12,0.00
2013-10-4,80.3,71.2,56.2,51.9,21.9,11.8,83,21,7,28.81,28.60,32,13,32,0.00
2013-10-5,84.1,76.2,69.7,24.3,20.5,15.9,18,13,8,28.90,28.79,31,12,31,0.00
2013-10-6,91.6,77.1,61.6,34.8,22.5,15.5,28,13,5,28.84,28.71,19,6,19,0.00
2013-10-7,85.9,68.5,57.2,45.7,32.9,23.1,44,29,11,28.72,28.64,13,3,13,0.00
2013-10-8,77.0,63.6,51.8,56.0,45.1,28.8,71,52,32,28.66,28.55,14,3,14,0.00
2013-10-9,61.9,58.8,51.1,52.6,49.2,42.9,80,71,52,28.55,28.42,21,4,21,0.00
2013-10-10,69.8,56.3,45.5,49.4,45.4,40.1,84,68,45,28.75,28.52,9,2,9,0.00
2013-10-11,75.4,59.9,48.6,53.7,47.4,43.0,83,65,39,28.76,28.68,15,2,15,0.00
2013-10-12,77.0,61.9,50.4,53.7,46.4,40.2,75,59,34,28.69,28.61,12,3,12,0.00
2013-10-13,72.0,59.2,50.0,53.4,48.3,39.2,83,68,49,28.74,28.65,12,3,12,0.00
2013-10-14,81.2,67.2,49.5,50.5,39.3,29.3,83,43,17,28.74,28.64,23,6,23,0.00
2013-10-15,83.3,73.4,62.1,36.9,30.7,24.6,39,22,13,28.72,28.62,20,6,20,0.00
2013-10-16,82.6,71.5,58.3,34.6,25.8,20.3,34,19,11,28.82,28.72,22,7,22,0.00
2013-10-17,81.2,66.2,53.6,44.4,34.9,26.6,47,33,16,28.76,28.67,13,3,13,0.00
2013-10-18,88.2,68.0,52.9,53.6,38.3,23.2,57,38,10,28.74,28.67,17,3,17,0.00
2013-10-19,87.8,68.2,52.9,48.2,37.0,22.8,52,35,10,28.75,28.70,12,3,14,0.00
2013-10-20,80.6,64.5,52.9,55.5,40.4,24.1,62,42,26,28.71,28.63,11,2,11,0.00
2013-10-21,77.8,62.5,48.6,56.8,46.4,37.3,70,57,40,28.71,28.63,10,2,10,0.00
2013-10-22,76.9,61.9,50.4,56.2,48.3,39.4,76,62,44,28.71,28.63,8,2,8,0.00
2013-10-23,71.5,59.2,48.1,56.1,51.0,43.3,87,75,58,28.70,28.61,9,2,9,0.00
2013-10-24,73.3,62.9,57.1,54.9,52.9,50.4,80,71,51,28.77,28.66,13,2,13,0.00
2013-10-25,75.2,60.6,52.0,55.3,51.5,46.2,91,73,47,28.84,28.73,7,2,7,0.00
2013-10-26,81.7,64.8,51.5,58.3,46.1,34.1,81,52,30,28.81,28.70,9,2,9,0.00
2013-10-27,76.0,62.8,53.1,54.4,44.4,30.9,83,52,36,28.71,28.53,11,3,11,0.00
2013-10-28,65.2,58.4,55.4,53.2,47.5,40.5,83,68,43,28.64,28.50,18,5,18,0.00
2013-10-29,66.1,56.6,48.6,48.6,45.5,41.7,83,68,44,28.72,28.63,13,3,13,0.00
2013-10-30,72.4,57.0,45.4,48.3,41.7,33.9,81,60,26,28.77,28.68,13,3,13,0.00
2013-10-31,78.8,62.2,48.4,45.0,37.9,25.9,78,46,16,28.80,28.71,12,3,12,0.00
2013-11-1,82.6,71.9,59.8,43.4,30.0,25.9,47,23,15,28.82,28.68,15,5,15,0.00
2013-11-2,82.3,68.9,55.8,45.5,34.8,26.8,49,30,15,28.72,28.59,14,3,14,0.00
2013-11-3,71.5,59.3,49.9,54.6,47.3,33.7,79,65,44,28.63,28.54,11,3,11,0.00
2013-11-4,70.2,60.0,51.5,52.9,49.0,33.6,86,68,42,28.67,28.51,12,2,12,0.00
2013-11-5,70.9,62.1,48.6,39.5,19.9,8.0,59,24,11,28.86,28.67,22,7,22,0.00
2013-11-6,77.8,69.6,62.5,16.9,12.9,8.8,15,11,7,28.92,28.84,24,11,24,0.00
2013-11-7,83.7,70.9,56.3,32.0,22.4,12.2,37,18,11,28.85,28.72,19,5,19,0.00
2013-11-8,80.5,64.6,53.8,47.9,31.2,19.8,44,30,15,28.74,28.65,10,3,10,0.00
2013-11-9,77.9,62.2,51.5,53.4,36.6,23.8,64,41,17,28.79,28.69,9,2,9,0.00
2013-11-10,79.6,59.6,49.7,50.4,38.8,14.9,67,50,7,28.82,28.74,13,2,13,0.00
2013-11-11,80.3,62.6,47.5,45.2,37.5,26.0,66,43,16,28.85,28.75,12,2,12,0.00
2013-11-12,83.7,70.0,53.3,50.2,34.7,19.3,60,33,11,28.87,28.79,14,4,14,0.00
2013-11-13,87.8,79.3,72.7,32.3,23.7,17.8,19,13,8,28.79,28.64,20,9,20,0.00
2013-11-14,88.6,76.0,61.7,42.8,30.9,23.5,34,21,12,28.68,28.47,16,5,16,0.00
2013-11-15,70.0,60.1,52.6,53.4,45.4,32.1,79,59,33,28.48,28.38,12,2,12,0.00
2013-11-16,65.7,59.5,54.9,52.6,50.3,46.5,83,72,59,28.63,28.45,9,2,9,0.00
2013-11-17,68.8,58.6,50.8,50.9,47.6,44.4,80,68,47,28.79,28.63,10,2,10,0.00
2013-11-18,67.0,56.8,48.2,52.8,48.1,41.9,82,73,58,28.84,28.74,10,2,10,0.00
2013-11-19,67.1,57.6,50.0,52.2,48.6,44.9,84,73,57,28.78,28.63,9,2,9,0.00
2013-11-20,65.9,58.6,52.9,54.2,50.8,46.3,88,76,59,28.66,28.56,6,2,6,0.00
2013-11-21,65.3,58.3,52.7,57.6,52.2,41.4,91,81,65,28.58,28.50,18,4,18,0.00
2013-11-22,55.8,52.0,49.3,41.7,38.2,36.8,66,59,52,28.66,28.55,32,15,32,0.00
2013-11-23,60.3,53.8,49.9,40.4,38.9,37.3,63,57,44,28.78,28.64,30,12,30,0.00
2013-11-24,65.7,56.8,50.8,43.3,39.5,37.0,64,54,35,28.89,28.76,17,6,19,0.00
2013-11-25,73.8,59.4,49.3,42.3,37.5,32.0,65,47,22,28.91,28.83,15,4,15,0.00
2013-11-26,74.5,65.8,58.0,40.6,36.4,33.1,43,34,23,28.88,28.75,15,6,15,0.00
2013-11-27,72.4,64.0,54.9,40.3,37.0,33.4,56,38,25,28.75,28.58,13,4,13,0.00
2013-11-28,67.5,60.0,52.9,44.2,39.2,34.7,57,47,33,28.74,28.58,12,2,12,0.00
2013-11-29,65.3,60.7,55.3,51.1,43.5,38.3,80,54,41,28.87,28.73,12,3,12,0.00
2013-11-30,74.2,65.8,59.2,39.4,35.8,32.3,47,34,25,28.87,28.76,18,6,18,0.00
2013-12-1,76.0,67.9,62.5,34.5,31.1,25.2,33,26,16,28.92,28.81,21,8,21,0.00
2013-12-2,74.3,61.3,52.2,38.0,32.3,28.8,49,35,22,28.82,28.59,11,2,11,0.00
2013-12-3,66.2,55.9,47.5,50.8,41.0,29.3,73,58,42,28.59,28.41,10,4,12,0.00
2013-12-4,58.7,50.4,44.8,42.1,21.3,13.9,71,33,18,28.62,28.45,17,5,17,0.00
2013-12-5,58.5,48.0,40.3,33.5,24.5,15.9,61,41,25,28.76,28.61,11,3,11,0.00
2013-12-6,56.7,46.0,38.2,38.7,32.8,21.9,79,61,47,28.82,28.73,11,3,11,0.00
2013-12-7,53.5,44.2,36.5,46.7,35.1,23.6,90,71,47,28.77,28.63,15,4,15,0.00
2013-12-8,42.1,39.7,38.0,25.4,23.7,21.5,59,53,46,28.78,28.74,8,1,8,0.00
2013-12-10,59.2,59.0,58.9,4.2,4.1,4.0,11,11,11,28.70,28.69,17,7,17,0.00
2013-12-12,69.1,50.1,45.9,35.5,30.8,28.7,54,48,29,28.98,28.94,5,2,5,0.02
2013-12-13,65.2,52.8,41.9,45.8,33.4,14.5,71,50,19,29.00,28.90,12,2,12,0.26
2013-12-14,69.5,63.5,58.5,23.2,19.4,14.6,24,19,16,29.07,28.98,29,12,29,0.00
2013-12-15,73.8,67.1,61.2,22.3,19.7,17.1,21,17,13,29.03,28.89,30,15,30,0.02
2013-12-16,80.3,72.5,68.0,22.4,20.5,17.8,17,15,11,28.94,28.87,23,11,23,0.00
2013-12-17,82.4,72.9,66.2,38.6,23.3,20.2,36,17,12,28.93,28.81,21,8,21,0.00
2013-12-18,73.1,63.5,54.5,52.1,43.0,24.1,81,51,19,28.82,28.63,15,3,15,0.00
2013-12-19,58.0,53.5,48.1,49.7,43.5,36.8,81,69,52,28.64,28.48,11,3,11,0.03
2013-12-20,63.0,52.2,44.6,37.5,32.5,25.1,67,48,25,28.72,28.57,17,4,17,0.00
2013-12-21,62.3,50.2,42.1,46.2,38.5,28.0,83,65,52,28.86,28.68,10,2,10,0.00
2013-12-22,69.5,53.4,42.3,49.7,42.0,32.9,85,68,32,29.04,28.86,11,2,11,0.00
2013-12-23,72.4,64.6,56.5,34.0,32.3,29.4,41,30,24,29.09,28.99,20,9,20,0.00
2013-12-24,76.3,66.8,63.4,35.1,32.1,28.9,31,28,18,28.99,28.89,24,11,24,0.00
2013-12-25,73.1,67.8,65.0,30.8,22.3,10.1,26,19,11,29.01,28.93,33,15,33,0.02
2013-12-26,74.9,68.2,63.7,14.7,11.2,8.6,13,10,6,28.97,28.89,28,14,28,0.00
2013-12-27,80.3,70.1,59.0,22.2,13.3,8.1,24,10,6,28.95,28.83,20,7,20,0.00
2013-12-28,75.4,62.2,52.2,40.4,23.3,11.4,47,24,12,28.83,28.71,9,2,9,0.00
2013-12-29,70.6,63.4,53.8,18.1,11.4,5.2,21,14,8,28.93,28.80,23,8,23,0.00
2013-12-30,73.8,61.3,49.0,21.8,13.7,3.8,32,17,8,29.03,28.92,17,3,17,0.00
2013-12-31,71.1,56.5,45.9,38.9,24.5,13.7,44,31,14,28.98,28.86,9,2,9,0.00
2014-1-1,77.6,65.1,45.7,29.2,20.2,9.8,51,21,11,28.90,28.82,19,7,19,0.00
2014-1-2,78.8,70.8,65.2,28.7,23.9,19.2,22,18,15,28.90,28.79,14,7,17,0.00